1496923201.15,16765,18.94,74116.3,24.09,-12.97,-19.41,0,*41
1496923202.38,16766,19.0,74122.3,24.09,-11.15,-17.35,0,*46
1496923203.62,16767,19.0,74120.3,24.09,-11.15,-17.35,0,*47
1496923204.82,16768,19.0,74124.0,24.11,-12.21,-18.45,0,*4D
1496923206.04,16769,18.94,74120.3,24.11,-12.57,-18.79,0,*42
1496923207.27,16770,19.0,74120.3,24.11,-12.93,-19.27,0,*48
1496923208.51,16771,18.94,74118.5,24.11,-11.93,-17.87,0,*4E
1496923209.75,16772,19.0,74122.8,24.11,-13.19,-19.57,0,*4E
1496923211.0,16773,19.0,74122.5,24.11,-13.87,-20.15,0,*44
1496923212.23,16774,19.0,74120.5,24.11,-11.51,-18.11,0,*45
1496923213.44,16775,18.94,74118.0,24.11,-14.29,-20.43,0,*42
1496923214.67,16776,19.0,74122.5,24.11,-14.05,-20.09,0,*41
1496923215.89,16777,19.0,74120.8,24.09,-13.11,-19.07,0,*4F
1496923217.17,16778,19.0,74124.3,24.09,-13.79,-19.61,0,*4E
1496923218.4,16779,19.0,74120.3,24.11,-12.61,-18.21,0,*4B
1496923219.68,16780,19.0,74120.5,24.15,-11.63,-17.41,0,*41
1496923220.96,16781,19.0,74120.8,24.15,-12.15,-17.79,0,*49
1496923222.18,16782,19.0,74122.0,24.15,-12.43,-18.45,0,*49
1496923223.42,16783,19.0,74122.5,24.17,-14.05,-20.25,0,*43
1496923224.65,16784,19.0,74120.0,24.15,-13.43,-19.51,0,*4A
1496923225.88,16785,19.0,74120.8,24.15,-14.29,-20.93,0,*44
1496923227.16,16786,18.94,74116.8,24.15,-13.61,-20.53,0,*40
1496923228.4,16787,19.0,74120.5,24.15,-12.25,-19.37,0,*48
1496923229.65,16788,19.0,74122.3,24.15,-12.57,-20.09,0,*45
1496923230.86,16789,19.0,74122.8,24.17,-12.25,-20.09,0,*43
1496923232.11,16790,19.0,74122.8,24.15,-13.37,-22.07,0,*47
1496923233.37,16791,19.0,74120.0,24.15,-12.03,-20.99,0,*45
1496923234.63,16792,18.94,74118.3,24.15,-10.75,-19.95,0,*43
1496923235.87,16793,19.0,74118.8,24.17,-9.61,-19.61,0,*76
1496923237.14,16794,19.0,74120.0,24.15,-11.07,-20.89,0,*46
1496923238.36,16795,19.0,74120.8,24.15,-11.19,-20.69,0,*46
1496923239.62,16796,19.0,74120.8,24.15,-11.89,-20.73,0,*47
1496923240.85,16797,19.0,74120.5,24.15,-13.43,-21.47,0,*44
1496923242.06,16798,19.0,74120.8,24.17,-12.93,-20.25,0,*40
1496923243.32,16799,19.0,74122.0,24.15,-13.29,-20.73,0,*40
1496923244.57,16800,19.0,74122.0,24.17,-13.79,-21.03,0,*4E
1496923245.86,16801,19.0,74120.8,24.15,-13.97,-21.33,0,*4E
1496923247.12,16802,19.0,74120.0,24.17,-14.55,-21.87,0,*49
1496923248.4,16803,18.94,74116.3,24.15,-15.35,-22.77,0,*41
1496923249.64,16804,19.0,74120.0,24.15,-16.45,-23.69,0,*4C
1496923250.89,16805,19.0,74120.3,24.15,-16.23,-23.59,0,*4E
1496923252.12,16806,19.0,74122.0,24.13,-16.59,-24.15,0,*49
1496923253.36,16807,19.0,74120.8,24.11,-16.09,-23.75,0,*4E
1496923254.61,16808,19.0,74124.0,24.09,-15.71,-23.33,0,*46
1496923255.88,16809,19.0,74120.8,24.09,-17.79,-26.29,0,*43
1496923257.13,16810,19.0,74122.8,24.07,-14.93,-23.65,0,*4F
1496923258.35,16811,19.0,74122.0,24.05,-14.89,-23.59,0,*48
1496923259.64,16812,19.0,74118.3,24.01,-15.43,-24.25,0,*44
1496923260.88,16813,19.0,74122.0,24.01,-14.61,-23.65,0,*47
1496923262.14,16814,19.0,74124.5,23.99,-14.83,-23.95,0,*45
1496923263.4,16815,19.0,74122.3,23.97,-14.23,-23.49,0,*41
1496923264.63,16816,19.0,74118.8,23.99,-13.69,-22.21,0,*4A
1496923265.93,16817,19.0,74122.8,23.97,-13.97,-22.31,0,*45
1496923267.21,16818,19.0,74120.3,23.97,-15.39,-23.99,0,*4B
1496923268.46,16819,19.0,74120.0,23.93,-15.01,-22.83,0,*4F
1496923269.72,16820,19.0,74120.3,23.93,-13.29,-20.39,0,*4A
1496923270.97,16821,19.0,74118.5,23.93,-13.47,-20.15,0,*4D
1496923272.2,16822,19.0,74120.8,23.95,-13.15,-20.19,0,*43
1496923273.43,16823,19.0,74122.5,23.95,-15.71,-23.23,0,*4C
1496923274.68,16824,18.94,74118.0,23.95,-15.57,-22.47,0,*4C
1496923275.91,16825,19.0,74124.8,23.95,-16.89,-23.85,0,*42
1496923277.14,16826,19.0,74122.3,23.93,-17.49,-24.51,0,*44
1496923278.4,16827,19.0,74120.5,23.89,-15.71,-22.17,0,*43
1496923279.63,16828,19.0,74126.8,23.91,-16.97,-23.65,0,*4A
1496923280.89,16829,19.0,74120.0,23.91,-15.85,-22.17,0,*4F
1496923282.18,16830,19.0,74122.0,23.89,-15.85,-22.17,0,*4E
1496923283.41,16831,19.0,74126.3,23.91,-14.75,-20.69,0,*43
1496923284.64,16832,19.0,74122.0,23.91,-15.07,-20.83,0,*40
1496923285.87,16833,19.0,74120.8,23.91,-17.03,-22.57,0,*4C
1496923287.13,16834,19.0,74120.8,23.91,-17.45,-23.03,0,*49
1496923288.39,16835,19.0,74122.5,23.91,-17.59,-23.03,0,*45
1496923289.62,16836,19.0,74124.3,23.91,-18.07,-23.65,0,*42
1496923290.88,16837,19.0,74122.0,23.89,-17.59,-22.57,0,*4E
1496923292.13,16838,19.0,74122.0,23.89,-18.45,-23.53,0,*46
1496923293.37,16839,19.0,74120.3,23.87,-18.21,-23.23,0,*4C
1496923294.6,16840,19.0,74122.0,23.85,-19.71,-24.77,0,*42
1496923295.86,16841,19.0,74122.0,23.85,-18.31,-22.97,0,*4E
1496923297.14,16842,19.0,74122.5,23.85,-19.31,-23.95,0,*4F
1496923298.37,16843,19.0,74118.5,23.83,-17.21,-21.73,0,*4D
1496923299.64,16844,19.0,74122.3,23.79,-16.65,-20.79,0,*45
1496923300.9,16845,19.0,74118.8,23.85,-15.63,-19.61,0,*41
1496923302.11,16846,19.0,74120.0,23.87,-15.71,-19.75,0,*46
1496923303.36,16847,19.0,74120.0,23.89,-16.97,-20.99,0,*4A
1496923304.57,16848,19.0,74122.3,23.91,-17.31,-21.39,0,*4A
1496923305.83,16849,19.0,74122.0,23.89,-17.03,-20.93,0,*42
1496923307.09,16850,19.0,74118.3,23.93,-17.35,-21.33,0,*4F
1496923308.37,16851,19.0,74118.0,23.93,-16.17,-19.81,0,*4D
1496923309.64,16852,19.0,74120.5,23.93,-15.35,-18.93,0,*4F
1496923310.84,16853,19.0,74122.3,23.95,-15.99,-19.47,0,*46
1496923312.08,16854,19.0,74120.3,23.97,-16.41,-20.05,0,*49
1496923313.28,16855,19.0,74120.8,23.99,-15.95,-19.47,0,*40
1496923314.51,16856,19.0,74122.3,23.99,-14.37,-17.93,0,*4D
1496923315.76,16857,19.0,74120.3,24.01,-14.93,-18.65,0,*42
1496923316.99,16858,19.0,74120.3,24.05,-15.75,-19.47,0,*41
1496923318.23,16859,19.0,74122.5,24.07,-16.09,-19.91,0,*41
1496923319.45,16860,19.0,74122.5,24.07,-17.59,-21.73,0,*48
1496923320.66,16861,19.0,74120.0,24.07,-18.69,-22.97,0,*4C
1496923321.89,16862,19.0,74120.8,24.07,-18.55,-23.13,0,*4D
1496923323.11,16863,19.0,74122.3,24.05,-17.69,-22.27,0,*48
1496923324.33,16864,19.0,74120.0,24.07,-15.21,-19.47,0,*4D
1496923325.62,16865,19.0,74122.5,24.05,-14.01,-17.93,0,*4A
1496923326.84,16866,19.0,74120.8,24.09,-14.33,-18.41,0,*44
1496923328.1,16867,19.0,74120.0,24.11,-15.39,-19.57,0,*41
1496923329.36,16868,19.0,74122.3,24.13,-17.41,-21.83,0,*43
1496923330.62,16869,19.0,74122.3,24.13,-17.45,-21.53,0,*4B
1496923331.83,16870,19.0,74118.5,24.11,-15.95,-19.95,0,*4F
1496923333.09,16871,19.0,74122.0,24.15,-15.75,-19.61,0,*4F
1496923334.37,16872,19.0,74122.3,24.15,-17.63,-22.17,0,*40
1496923335.62,16873,19.0,74120.8,24.15,-18.45,-22.47,0,*4F
1496923336.9,16874,19.0,74120.5,24.15,-18.59,-22.73,0,*42
1496923338.13,16875,19.0,74122.3,24.11,-18.31,-22.11,0,*4D
1496923339.34,16876,19.0,74120.3,24.13,-16.89,-20.59,0,*4F
1496923340.55,16877,19.0,74122.3,24.13,-17.49,-21.63,0,*4B
1496923341.81,16878,19.0,74122.8,24.13,-17.97,-22.31,0,*43
1496923343.05,16879,19.0,74120.3,24.13,-18.59,-23.43,0,*4B
1496923344.26,16880,19.0,74120.3,24.13,-19.91,-25.49,0,*44
1496923345.47,16881,19.0,74118.0,24.07,-19.47,-25.49,0,*4B
1496923346.72,16882,19.0,74120.8,24.05,-17.31,-23.99,0,*4E
1496923347.99,16883,19.0,74122.3,24.05,-13.97,-21.17,0,*43
1496923349.21,16884,19.0,74118.8,24.05,-11.15,-18.83,0,*4B
1496923350.47,16885,19.0,74122.8,24.05,-10.71,-18.73,0,*46
1496923351.74,16886,19.0,74122.3,24.01,-11.77,-20.35,0,*4F
1496923353.02,16887,19.0,74120.5,24.01,-11.51,-19.65,0,*45
1496923354.31,16888,19.0,74122.0,24.05,-11.29,-19.61,0,*45
1496923355.57,16889,19.0,74122.3,24.05,-13.51,-22.77,0,*46
1496923356.83,16890,19.0,74126.3,24.05,-11.73,-20.43,0,*49
1496923358.11,16891,19.0,74124.0,24.05,-11.73,-20.53,0,*49
1496923359.34,16892,19.0,74120.0,24.05,-12.39,-21.47,0,*43
1496923360.61,16893,19.0,74120.5,24.01,-13.79,-23.65,0,*41
1496923361.84,16894,19.0,74118.3,23.99,-13.65,-23.53,0,*48
1496923363.07,16895,19.0,74124.0,23.97,-14.33,-24.47,0,*41
1496923364.33,16896,19.0,74118.8,23.97,-10.85,-20.35,0,*4A
1496923365.62,16897,19.0,74122.3,23.97,-12.65,-22.31,0,*41
1496923366.88,16898,19.0,74120.8,23.97,-14.79,-24.51,0,*45
1496923368.16,16899,19.0,74120.0,23.93,-12.71,-22.17,0,*4A
1496923369.44,16900,19.0,74120.5,23.93,-14.79,-24.21,0,*46
1496923370.72,16901,19.0,74116.5,23.89,-14.93,-23.69,0,*43
1496923371.93,16902,19.0,74120.3,23.87,-15.99,-24.67,0,*4C
1496923373.22,16903,19.0,74120.0,23.85,-19.31,-28.21,0,*4F
1496923374.44,16904,19.0,74120.0,23.73,-20.79,-29.23,0,*44
1496923375.67,16905,19.0,74120.5,23.69,-20.09,-28.09,0,*40
1496923376.94,16906,19.0,74120.8,23.63,-16.69,-24.41,0,*4A
1496923378.16,16907,19.0,74116.8,23.57,-17.07,-24.51,0,*44
1496923379.36,16908,19.0,74122.5,23.57,-14.61,-21.63,0,*4C
1496923380.61,16909,19.0,74120.3,23.57,-14.43,-21.67,0,*49
1496923381.82,16910,19.0,74124.0,23.57,-18.45,-26.03,0,*4E
1496923383.06,16911,19.0,74120.3,23.55,-17.69,-24.67,0,*4C
1496923384.3,16912,19.0,74124.0,23.53,-15.75,-22.21,0,*42
1496923385.52,16913,19.0,74120.0,23.55,-16.45,-22.93,0,*4C
1496923386.75,16914,19.0,74120.8,23.53,-15.63,-21.57,0,*41
1496923387.97,16915,19.0,74122.8,23.55,-13.43,-18.83,0,*41
1496923389.2,16916,19.0,74124.5,23.57,-13.97,-19.37,0,*47
1496923390.41,16917,19.0,74122.3,23.61,-14.37,-19.71,0,*4C
1496923391.65,16918,19.0,74120.5,23.63,-15.63,-20.79,0,*43
1496923392.86,16919,19.0,74122.8,23.65,-15.63,-20.59,0,*46
1496923394.09,16920,19.0,74120.5,23.67,-15.15,-19.99,0,*49
1496923395.3,16921,19.0,74118.3,23.69,-13.55,-18.11,0,*45
1496923396.55,16922,19.0,74124.0,23.71,-12.93,-17.41,0,*4E
1496923397.78,16923,19.0,74122.0,23.77,-12.15,-16.55,0,*43
1496923399.04,16924,19.0,74122.5,23.79,-13.73,-18.31,0,*47
1496923400.29,16925,19.0,74122.8,23.85,-13.01,-17.49,0,*40
1496923401.52,16926,19.0,74120.8,23.87,-13.43,-17.93,0,*40
1496923402.77,16927,19.0,74122.8,23.89,-15.71,-20.79,0,*48
1496923404.03,16928,19.0,74120.3,23.89,-15.81,-20.69,0,*49
1496923405.29,16929,19.0,74126.5,23.89,-13.83,-18.79,0,*46
1496923406.5,16930,19.0,74122.3,23.91,-16.59,-21.77,0,*41
1496923407.73,16931,19.0,74124.0,23.89,-18.79,-24.77,0,*40
1496923408.95,16932,19.0,74122.8,23.85,-22.67,-29.23,0,*45
1496923410.17,16933,19.0,74120.5,23.75,-24.93,-31.67,0,*4F
1496923411.42,16934,19.0,74122.3,23.67,-24.35,-31.11,0,*46
1496923412.62,16935,19.0,74120.8,23.57,-21.93,-28.69,0,*4A
1496923413.88,16936,19.0,74122.8,23.51,-25.49,-32.63,0,*4D
1496923415.13,16937,19.0,74122.3,23.45,-24.57,-31.51,0,*45
1496923416.39,16938,19.0,74122.0,23.37,-23.65,-30.45,0,*4D
1496923417.65,16939,19.0,74120.5,23.27,-21.33,-28.21,0,*47
1496923418.9,16940,19.0,74120.8,23.21,-21.43,-28.47,0,*48
1496923420.16,16941,19.0,74120.0,23.17,-22.03,-29.01,0,*48
1496923421.43,16942,19.0,74126.3,23.11,-21.27,-28.05,0,*4D
1496923422.66,16943,19.0,74124.0,23.07,-20.93,-27.55,0,*4F
1496923423.91,16944,19.0,74120.8,23.01,-20.49,-26.97,0,*46
1496923425.11,16945,19.0,74120.5,22.97,-20.29,-27.03,0,*43
1496923426.31,16946,19.0,74122.3,22.97,-18.21,-24.57,0,*41
1496923427.56,16947,19.0,74126.3,22.95,-19.41,-25.87,0,*49
1496923428.79,16948,19.0,74122.0,22.93,-19.31,-25.91,0,*40
1496923430.05,16949,19.0,74122.3,22.89,-18.31,-24.67,0,*43
1496923431.26,16950,19.0,74118.8,22.89,-18.69,-25.39,0,*4C
1496923432.46,16951,19.0,74122.0,22.83,-19.99,-26.49,0,*4D
1496923433.71,16952,19.0,74118.8,22.83,-17.93,-24.11,0,*45
1496923434.95,16953,19.0,74122.5,22.81,-19.81,-26.65,0,*4A
1496923436.18,16954,19.0,74122.0,22.79,-18.35,-24.93,0,*4F
1496923437.45,16955,19.0,74122.3,22.77,-17.07,-23.33,0,*43
1496923438.73,16956,19.0,74122.3,22.77,-17.11,-23.33,0,*47
1496923440.01,16957,19.0,74122.3,22.77,-15.89,-21.87,0,*48
1496923441.27,16958,19.0,74120.0,22.77,-16.93,-23.23,0,*43
1496923442.47,16959,19.0,74120.0,22.79,-15.29,-21.39,0,*47
1496923443.71,16960,19.0,74120.8,22.81,-14.69,-20.83,0,*4F
1496923444.91,16961,19.0,74122.3,22.79,-16.03,-22.11,0,*4E
1496923446.17,16962,19.0,74122.8,22.81,-14.89,-20.99,0,*48
1496923447.39,16963,19.0,74124.8,22.81,-13.55,-19.47,0,*46
1496923448.59,16964,19.0,74122.0,22.83,-13.23,-18.99,0,*40
1496923449.84,16965,19.0,74120.0,22.87,-12.35,-18.17,0,*45
1496923451.1,16966,19.0,74122.8,22.93,-13.79,-19.85,0,*40
1496923452.35,16967,19.0,74122.3,22.95,-13.73,-19.85,0,*4D
1496923453.62,16968,19.0,74122.8,22.95,-13.01,-18.93,0,*41
1496923454.85,16969,19.0,74124.0,22.97,-11.77,-17.83,0,*4F
1496923456.1,16970,19.0,74120.0,23.01,-11.51,-17.45,0,*47
1496923457.35,16971,19.0,74118.0,23.03,-11.19,-17.25,0,*4E
1496923458.6,16972,19.0,74126.0,23.07,-11.45,-17.63,0,*42
1496923459.86,16973,19.0,74120.8,23.11,-10.31,-16.17,0,*44
1496923461.06,16974,19.0,74122.3,23.19,-10.45,-16.45,0,*4F
1496923462.32,16975,19.0,74122.5,23.21,-11.01,-17.03,0,*47
1496923463.6,16976,19.0,74124.8,23.25,-10.63,-16.51,0,*43
1496923464.87,16977,19.0,74120.8,23.29,-9.41,-15.25,0,*76
1496923466.12,16978,19.0,74120.3,23.33,-10.67,-16.89,0,*4B
1496923467.39,16979,19.0,74120.5,23.37,-14.43,-20.93,0,*42
1496923468.65,16980,19.0,74116.5,23.37,-15.63,-22.31,0,*4D
1496923469.91,16981,19.0,74122.8,23.33,-15.53,-22.17,0,*4F
1496923471.17,16982,19.0,74124.5,23.31,-14.79,-21.23,0,*43
1496923472.39,16983,19.0,74120.5,23.33,-12.93,-19.07,0,*4F
1496923473.64,16984,19.0,74118.0,23.31,-11.81,-18.01,0,*4D
1496923474.9,16985,19.0,74120.8,23.37,-12.93,-19.23,0,*4B
1496923476.1,16986,19.0,74120.3,23.39,-12.89,-18.99,0,*4D
1496923477.33,16987,19.0,74120.5,23.39,-11.89,-18.07,0,*48
1496923478.61,16988,19.0,74122.5,23.41,-11.97,-18.31,0,*42
1496923479.84,16989,19.0,74118.5,23.43,-12.71,-19.13,0,*4B
1496923481.1,16990,19.0,74122.5,23.45,-14.33,-20.49,0,*40
1496923482.3,16991,19.0,74122.3,23.43,-12.47,-18.65,0,*47
1496923483.52,16992,19.0,74120.5,23.43,-12.47,-18.55,0,*47
1496923484.78,16993,19.0,74122.5,23.45,-12.07,-18.11,0,*44
1496923486.01,16994,19.0,74122.8,23.47,-11.77,-18.07,0,*42
1496923487.23,16995,19.0,74126.0,23.47,-11.97,-18.07,0,*4D
1496923488.51,16996,19.0,74120.5,23.51,-11.51,-17.45,0,*4A
1496923489.77,16997,19.0,74122.0,23.51,-11.01,-17.17,0,*49
1496923491.04,16998,19.0,74120.0,23.55,-11.59,-17.79,0,*47
1496923492.28,16999,19.0,74126.0,23.57,-12.61,-18.89,0,*4C
1496923493.5,17000,19.0,74120.8,23.57,-12.71,-18.99,0,*44
1496923494.74,17001,19.0,74126.8,23.61,-12.11,-18.11,0,*46
1496923495.96,17002,19.0,74122.8,23.61,-11.67,-17.73,0,*4C
1496923497.19,17003,19.0,74122.3,23.61,-11.15,-17.17,0,*4A
1496923498.44,17004,19.0,74124.3,23.65,-11.85,-17.97,0,*48
1496923499.69,17005,19.0,74126.0,23.69,-12.65,-19.27,0,*4D
1496923500.92,17006,19.0,74122.3,23.67,-13.11,-19.51,0,*43
1496923502.13,17007,19.0,74122.0,23.67,-16.93,-23.89,0,*41
1496923503.38,17008,19.0,74122.3,23.67,-16.23,-22.87,0,*4A
1496923504.58,17009,19.0,74124.3,23.65,-13.55,-19.75,0,*48
1496923505.86,17010,19.06,74128.5,23.63,-14.05,-20.35,0,*4A
1496923507.11,17011,19.0,74120.3,23.63,-14.33,-20.79,0,*46
1496923508.38,17012,19.0,74122.8,23.63,-15.01,-21.53,0,*4C
1496923509.6,17013,19.0,74120.5,23.63,-15.15,-21.73,0,*4A
1496923510.86,17014,19.0,74120.5,23.63,-14.51,-20.93,0,*43
1496923512.09,17015,19.0,74118.8,23.63,-13.93,-20.29,0,*4A
1496923513.36,17016,19.0,74120.8,23.63,-12.53,-18.35,0,*42
1496923514.61,17017,19.0,74120.0,23.65,-12.83,-18.93,0,*44
1496923515.88,17018,19.0,74118.8,23.67,-14.75,-21.33,0,*46
1496923517.15,17019,19.0,74120.5,23.67,-13.97,-20.39,0,*47
1496923518.35,17020,19.0,74122.3,23.69,-12.93,-19.17,0,*40
1496923519.6,17021,19.0,74118.8,23.71,-13.07,-19.23,0,*43
1496923520.83,17022,19.06,74122.8,23.73,-13.61,-20.09,0,*40
1496923522.06,17023,19.0,74122.0,23.75,-14.29,-20.69,0,*4A
1496923523.26,17024,19.0,74118.0,23.77,-15.75,-22.27,0,*4F
1496923524.47,17025,19.0,74122.0,23.73,-14.29,-20.59,0,*49
1496923525.71,17026,19.0,74118.5,23.77,-13.23,-19.57,0,*47
1496923526.96,17027,19.0,74120.8,23.77,-14.93,-21.27,0,*46
1496923528.17,17028,19.0,74116.0,23.77,-14.11,-20.39,0,*4D
1496923529.4,17029,19.0,74118.3,23.79,-13.73,-19.99,0,*41
1496923530.65,17030,19.0,74118.3,23.79,-15.63,-22.17,0,*40
1496923531.91,17031,19.0,74116.8,23.83,-15.43,-21.83,0,*48
1496923533.13,17032,19.0,74118.8,23.83,-15.57,-22.03,0,*45
1496923534.36,17033,19.0,74120.0,23.79,-16.89,-23.59,0,*4F
1496923535.61,17034,19.0,74118.5,23.79,-16.55,-23.29,0,*4E
1496923536.85,17035,19.0,74122.0,23.79,-16.75,-23.65,0,*45
1496923538.1,17036,19.0,74122.8,23.79,-17.59,-24.57,0,*4F
1496923539.3,17037,19.0,74120.3,23.77,-17.49,-24.31,0,*41
1496923540.51,17038,19.0,74120.0,23.77,-16.37,-23.09,0,*4A
1496923541.78,17039,19.0,74118.3,23.75,-18.01,-24.87,0,*43
1496923543.04,17040,19.0,74120.3,23.75,-18.31,-25.19,0,*48
1496923544.27,17041,19.06,74120.5,23.73,-18.93,-25.91,0,*47
1496923545.47,17042,19.0,74118.8,23.69,-18.41,-25.19,0,*40
1496923546.73,17043,19.0,74118.5,23.67,-17.41,-23.89,0,*4F
1496923547.96,17044,19.0,74118.3,23.69,-18.99,-25.75,0,*49
1496923549.2,17045,19.0,74116.5,23.67,-19.17,-26.03,0,*43
1496923550.47,17046,19.0,74116.5,23.63,-20.49,-27.61,0,*40
1496923551.75,17047,19.0,74118.5,23.63,-18.89,-25.55,0,*43
1496923552.96,17048,19.0,74120.5,23.61,-19.13,-25.91,0,*44
1496923554.19,17049,19.0,74114.8,23.57,-18.99,-25.55,0,*4B
1496923555.4,17050,19.0,74116.8,23.57,-18.73,-25.49,0,*4A
1496923556.65,17051,19.0,74118.8,23.57,-18.59,-25.81,0,*47
1496923557.87,17052,19.0,74114.0,23.57,-18.45,-26.13,0,*41
1496923559.13,17053,19.0,74114.8,23.53,-17.55,-25.03,0,*48
1496923560.4,17054,19.0,74116.0,23.55,-16.31,-24.67,0,*49
1496923561.64,17055,19.0,74118.5,23.53,-15.35,-24.15,0,*4C
1496923562.85,17056,19.0,74116.8,23.53,-15.07,-24.61,0,*4D
1496923564.11,17057,19.0,74114.3,23.55,-15.01,-24.87,0,*44
1496923565.38,17058,19.0,74118.0,23.53,-15.39,-25.71,0,*4E
1496923566.62,17059,19.0,74118.5,23.51,-14.33,-23.95,0,*4A
1496923567.89,17060,19.0,74116.0,23.51,-14.79,-23.99,0,*42
1496923569.15,17061,19.0,74118.3,23.55,-16.03,-24.71,0,*49
1496923570.37,17062,19.0,74116.5,23.49,-16.23,-24.51,0,*47
1496923571.63,17063,19.06,74120.3,23.51,-15.39,-23.13,0,*46
1496923572.87,17064,19.06,74116.5,23.51,-15.71,-23.53,0,*49
1496923574.15,17065,19.0,74116.3,23.51,-16.23,-23.65,0,*49
1496923575.43,17066,19.06,74116.8,23.51,-16.09,-23.19,0,*49
1496923576.69,17067,19.0,74118.0,23.51,-18.41,-25.81,0,*4D
1496923577.97,17068,19.0,74116.3,23.51,-17.17,-23.69,0,*4E
1496923579.19,17069,19.0,74114.3,23.51,-15.99,-22.67,0,*44
1496923580.45,17070,19.0,74118.3,23.53,-16.17,-22.77,0,*4A
1496923581.7,17071,19.0,74116.0,23.55,-16.45,-23.03,0,*48
1496923582.95,17072,19.06,74120.0,23.55,-17.69,-24.41,0,*45
1496923584.17,17073,19.0,74116.0,23.57,-18.55,-25.13,0,*40
1496923585.44,17074,19.06,74120.5,23.55,-17.63,-24.11,0,*4C
1496923586.68,17075,19.06,74116.5,23.55,-17.69,-23.99,0,*40
1496923587.91,17076,19.06,74120.0,23.57,-15.49,-21.53,0,*45
1496923589.11,17077,19.0,74118.3,23.61,-16.75,-23.09,0,*40
1496923590.32,17078,19.0,74118.0,23.61,-18.69,-24.97,0,*4C
1496923591.57,17079,19.0,74116.5,23.61,-17.21,-23.49,0,*4A
1496923592.77,17080,19.0,74114.8,23.61,-18.07,-24.35,0,*4B
1496923594.0,17081,19.0,74116.0,23.61,-19.47,-25.97,0,*46
1496923595.23,17082,19.0,74116.3,23.61,-18.07,-24.25,0,*48
1496923596.46,17083,19.0,74116.5,23.61,-18.65,-24.83,0,*41
1496923597.68,17084,19.0,74116.0,23.57,-17.69,-23.85,0,*41
1496923598.91,17085,19.0,74118.3,23.61,-17.87,-23.99,0,*48
1496923600.14,17086,19.0,74116.8,23.61,-18.01,-24.05,0,*48
1496923601.36,17087,19.0,74118.8,23.57,-18.99,-24.87,0,*47
1496923602.59,17088,19.06,74118.3,23.57,-19.23,-25.19,0,*4E
1496923603.82,17089,19.06,74122.3,23.61,-19.75,-25.75,0,*43
1496923605.03,17090,19.0,74118.0,23.57,-19.51,-25.39,0,*40
1496923606.27,17091,19.06,74116.5,23.57,-18.89,-24.67,0,*4F
1496923607.51,17092,19.0,74116.5,23.55,-18.59,-24.35,0,*44
1496923608.74,17093,19.0,74116.3,23.53,-19.03,-24.71,0,*4D
1496923610.0,17094,19.0,74112.0,23.55,-18.83,-24.25,0,*44
1496923611.23,17095,19.0,74116.5,23.53,-18.31,-23.75,0,*48
1496923612.46,17096,19.0,74118.3,23.57,-17.03,-22.11,0,*42
1496923613.7,17097,19.0,74118.8,23.57,-17.55,-22.73,0,*44
1496923614.91,17098,19.0,74116.5,23.57,-19.71,-25.13,0,*42
1496923616.1,17099,19.0,74118.3,23.57,-18.25,-23.39,0,*4D
1496923617.33,17100,19.0,74116.3,23.61,-17.07,-22.11,0,*4D
1496923618.54,17101,19.0,74118.3,23.61,-17.49,-22.57,0,*44
1496923619.78,17102,19.0,74114.5,23.65,-17.79,-22.73,0,*46
1496923620.98,17103,19.06,74118.5,23.65,-19.95,-25.23,0,*49
1496923622.23,17104,19.0,74116.5,23.63,-22.31,-27.89,0,*4C
1496923623.46,17105,19.0,74116.5,23.57,-22.17,-27.67,0,*4E
1496923624.75,17106,19.06,74122.8,23.55,-21.67,-27.35,0,*4C
1496923625.98,17107,19.0,74116.5,23.53,-21.87,-27.03,0,*40
1496923627.22,17108,19.0,74118.0,23.53,-21.03,-26.03,0,*42
1496923628.47,17109,19.06,74122.3,23.51,-20.69,-25.81,0,*45
1496923629.68,17110,19.06,74120.0,23.49,-22.87,-28.15,0,*46
1496923630.88,17111,19.06,74122.3,23.47,-21.47,-26.45,0,*4D
1496923632.1,17112,19.06,74120.3,23.45,-22.67,-27.89,0,*4C
1496923633.31,17113,19.06,74122.3,23.43,-22.27,-27.29,0,*45
1496923634.58,17114,19.06,74120.3,23.41,-20.79,-25.45,0,*41
1496923635.84,17115,19.0,74118.5,23.41,-20.63,-25.75,0,*48
1496923637.07,17116,19.06,74120.8,23.39,-21.93,-26.81,0,*42
1496923638.33,17117,19.0,74118.8,23.37,-18.59,-22.97,0,*42
1496923639.56,17118,19.0,74118.8,23.39,-18.41,-22.77,0,*44
1496923640.81,17119,19.0,74118.3,23.41,-19.47,-23.95,0,*40
1496923642.01,17120,19.06,74122.0,23.43,-17.73,-21.77,0,*4F
1496923643.26,17121,19.06,74120.3,23.45,-18.73,-22.77,0,*44
1496923644.51,17122,19.06,74122.0,23.47,-17.63,-21.53,0,*4E
1496923645.74,17123,19.0,74118.3,23.49,-18.01,-22.03,0,*4C
1496923646.96,17124,19.0,74120.0,23.49,-22.07,-26.33,0,*43
1496923648.17,17125,19.0,74116.5,23.49,-20.39,-24.31,0,*4D
1496923649.39,17126,19.0,74116.3,23.49,-20.19,-24.31,0,*4C
1496923650.65,17127,19.06,74116.8,23.51,-19.31,-23.13,0,*43
1496923651.85,17128,19.0,74116.3,23.49,-18.99,-22.87,0,*4A
1496923653.07,17129,19.06,74118.5,23.51,-17.73,-21.43,0,*42
1496923654.3,17130,19.06,74116.5,23.51,-18.49,-22.11,0,*48
1496923655.55,17131,19.0,74118.0,23.51,-17.79,-21.43,0,*41
1496923656.78,17132,19.0,74118.8,23.55,-16.75,-20.39,0,*47
1496923658.04,17133,19.06,74116.8,23.57,-17.41,-21.03,0,*4A
1496923659.28,17134,19.06,74120.3,23.57,-16.65,-20.39,0,*42
1496923660.51,17135,19.06,74116.3,23.61,-16.89,-20.53,0,*48
1496923661.75,17136,19.06,74120.8,23.65,-16.51,-20.15,0,*48
1496923662.96,17137,19.06,74120.3,23.65,-16.37,-19.95,0,*4B
1496923664.16,17138,19.06,74118.5,23.69,-15.67,-19.17,0,*44
1496923665.39,17139,19.06,74118.0,23.69,-17.45,-21.43,0,*4D
1496923666.65,17140,19.0,74116.5,23.69,-19.41,-23.33,0,*4C
1496923667.87,17141,19.0,74116.5,23.69,-18.89,-22.87,0,*46
1496923669.12,17142,19.06,74118.3,23.67,-17.55,-21.47,0,*4A
1496923670.38,17143,19.0,74116.3,23.69,-17.17,-20.99,0,*41
1496923671.63,17144,19.06,74120.8,23.67,-17.83,-21.53,0,*42
1496923672.85,17145,19.06,74122.3,23.69,-19.13,-23.09,0,*47
1496923674.11,17146,19.06,74118.8,23.67,-21.33,-25.65,0,*4F
1496923675.39,17147,19.06,74116.5,23.63,-21.53,-25.71,0,*49
1496923676.62,17148,19.06,74118.3,23.57,-19.75,-23.85,0,*43
1496923677.84,17149,19.06,74118.3,23.53,-20.15,-24.05,0,*45
1496923679.12,17150,19.06,74122.3,23.55,-17.21,-21.33,0,*48
1496923680.4,17151,19.0,74116.3,23.55,-17.97,-22.47,0,*44
1496923681.65,17152,19.0,74118.3,23.55,-18.89,-23.75,0,*47
1496923682.86,17153,19.06,74120.8,23.53,-18.79,-23.89,0,*4C
1496923684.11,17154,19.06,74118.3,23.51,-20.53,-25.91,0,*45
1496923685.33,17155,19.06,74118.0,23.45,-18.25,-23.13,0,*47
1496923686.61,17156,19.06,74116.5,23.45,-19.41,-24.71,0,*44
1496923687.85,17157,19.06,74118.8,23.43,-17.35,-22.17,0,*48
1496923689.1,17158,19.0,74116.3,23.41,-18.21,-23.33,0,*48
1496923690.38,17159,19.06,74120.8,23.37,-22.31,-28.25,0,*4C
1496923691.64,17160,19.06,74116.8,23.27,-23.99,-30.05,0,*4F
1496923692.89,17161,19.06,74118.5,23.23,-23.65,-29.51,0,*40
1496923694.13,17162,19.0,74118.3,23.11,-22.57,-28.15,0,*43
1496923695.36,17163,19.0,74118.0,23.05,-21.53,-26.87,0,*45
1496923696.64,17164,19.0,74118.0,22.99,-22.73,-28.05,0,*43
1496923697.87,17165,19.06,74118.3,22.93,-22.27,-27.23,0,*42
1496923699.13,17166,19.06,74120.0,22.87,-21.17,-25.71,0,*41
1496923700.36,17167,19.06,74116.8,22.83,-19.57,-23.79,0,*45
1496923701.61,17168,19.06,74118.8,22.79,-21.03,-25.45,0,*4C
1496923702.84,17169,19.06,74118.8,22.75,-23.69,-28.69,0,*4C
1496923704.09,17170,19.06,74120.0,22.65,-24.67,-29.61,0,*45